FW2573 Weather Reports


Display with metric or nautical units.
time (UTC)temp
F
wind
direction
speed
MPH
gust
MPH
rain 1hr
in
rain 24hr
in
rain mn
in
humidity
%
barometer
mb
20260504184619 70 244 5.0 13.0 0.00 0.00 0.00 32 1016.5
20260504183015 69 271 4.0 13.0 0.00 0.00 0.00 30 1016.8
20260504181513 68 286 4.0 13.0 0.00 0.00 0.00 33 1017.1
20260504180013 68 261 4.0 13.0 0.00 0.00 0.00 33 1017.2
20260504174510 66 263 4.0 9.0 0.00 0.00 0.00 30 1017.2
20260504173009 66 265 3.0 11.0 0.00 0.00 0.00 32 1017.4
20260504171504 66 229 5.0 9.0 0.00 0.00 0.00 33 1017.5
20260504081600 34 303 0.0 1.0 0.00 0.00 0.00 66 1018.7
20260504044531 40 302 0.0 4.0 0.00 0.00 0.00 54 1019.4
20260504043038 40 275 0.0 0.0 0.00 0.00 0.00 54 1019.4
20260504041527 40 275 0.0 0.0 0.00 0.00 0.00 52 1019.3
20260504040026 40 275 0.0 1.0 0.00 0.00 0.00 51 1019.2
20260504034525 41 275 0.0 0.0 0.00 0.00 0.00 48 1019.3
20260504033023 42 275 0.0 0.0 0.00 0.00 0.00 47 1019.1
20260504031523 44 275 0.0 2.0 0.00 0.00 0.00 41 1019.1
20260504030026 43 274 0.0 2.0 0.00 0.00 0.00 43 1018.9
20260504024521 45 360 0.0 3.0 0.00 0.00 0.00 40 1019.3
20260504023021 45 360 0.0 0.0 0.00 0.00 0.00 39 1019.3
20260504021520 45 275 0.0 2.0 0.00 0.00 0.00 38 1019.4
20260504020020 47 266 1.0 4.0 0.00 0.00 0.00 33 1019.0
20260504014530 47 281 1.0 4.0 0.00 0.00 0.00 34 1018.9
20260504013032 47 273 1.0 4.0 0.00 0.00 0.00 34 1018.8
20260504011521 47 289 1.0 4.0 0.00 0.00 0.00 34 1018.8
20260504010118 47 360 1.0 4.0 0.00 0.00 0.00 35 1018.6
20260504004518 47 360 0.0 1.0 0.00 0.00 0.00 38 1018.5
20260504003017 50 360 1.0 4.0 0.00 0.00 0.00 33 1018.5
20260504001516 52 360 0.0 6.0 0.00 0.00 0.00 25 1018.4
20260504000015 53 281 1.0 6.0 0.00 0.00 0.00 26 1018.4
20260503234515 55 342 1.0 4.0 0.00 0.00 0.00 23 1018.3
20260503233020 56 252 1.0 4.0 0.00 0.00 0.00 21 1018.3
20260503231516 57 247 1.0 7.0 0.00 0.00 0.00 19 1018.1
20260503230016 58 261 2.0 8.0 0.00 0.00 0.00 16 1018.1
20260503224512 58 26 2.0 9.0 0.00 0.00 0.00 16 1018.2
20260503223012 59 337 4.0 9.0 0.00 0.00 0.00 16 1018.2
20260503221511 59 286 4.0 13.0 0.00 0.00 0.00 14 1018.3
20260503220113 60 261 3.0 9.0 0.00 0.00 0.00 13 1018.3
20260503214509 60 281 2.0 10.0 0.00 0.00 0.00 15 1018.4
20260503213108 59 20 5.0 12.0 0.00 0.00 0.00 12 1018.8
20260503211506 61 286 3.0 11.0 0.00 0.00 0.00 11 1018.8
20260503210006 61 257 3.0 10.0 0.00 0.00 0.00 13 1019.0
20260503204505 60 248 5.0 13.0 0.00 0.00 0.00 13 1019.1
20260503203010 60 261 5.0 11.0 0.00 0.00 0.00 16 1019.1
20260503201504 62 355 2.0 8.0 0.00 0.00 0.00 15 1019.1
20260503200004 61 242 1.0 9.0 0.00 0.00 0.00 15 1019.1
20260503194502 60 265 3.0 8.0 0.00 0.00 0.00 18 1019.3
20260503193002 59 276 4.0 12.0 0.00 0.00 0.00 13 1019.5
20260503191600 59 264 3.0 10.0 0.00 0.00 0.00 17 1019.9
20260503190109 58 290 3.0 12.0 0.00 0.00 0.00 18 1019.9